Location: Asheville, NC
(35.6000°N, 82.5500°W)
Time: 00:30:20
(UTC-04:00)

Vanguard 1 Rocket - Pass Details

Date: 09 March 2018
Orbit: 653 x 4224 km, 34.3° (Epoch: 24 June)

Event Time Altitude Azimuth Distance (km) Brightness Sun altitude
Rises 17:42:49 0° 217° (SW) 3,657 11.3 9.2°
Reaches altitude 10° 17:45:06 10° 208° (SSW) 2,971 10.7 8.7°
Maximum altitude 17:51:55 39° 141° (SE) 2,252 9.3 7.4°
Drops below altitude 10° 18:04:12 10° 79° (E) 5,345 10.7 4.9°
Sets 18:09:57 0° 74° (ENE) 6,967 11.2 3.7°
